STARLINK-31945, 59870

Orbit data source: Space-Track

STARLINK-31945, 59870 is a payload satellite owned by SpaceX/Seattle (US) in LEO that was launched on Fri, 24 May 2024 UTC via an FALCON 9 launch vehicle from the Air Force Eastern Test Range (AFETR). Payload-class satellites include a variety of spacecraft equipped with specific instruments for various scientific and technological missions. These include communications satellites like Starlink; space stations such as the ISS; scientific satellites like the Hubble; Earth observation satellites from companies like Planet Labs, Umbra, and HawkEye 360; GPS; miniature CubeSats for education and research; and military/defense satellites.

Loading next visibility...
Identifier
59870, 2024-098N
Orbit
LEO
Country
Flag of USUS
Related business
Manufacturer
SpaceX/Seattle
Mission
Operational Commercial Communications
Bus & Motor
STARLINK V2M, Unknown motor
Mass
730 kg wet, ~700 kg dry
Launch date (UTC)
2024-05-24 (2 years ago)
Launch vehicle
FALCON 9
Launch site
Air Force Eastern Test Range (AFETR)
Object type
Payload
Rocket body
Debris
Shape & HBR
Box + 2 Pan, 17.7 m
Radar Cross Section
33.884 m², Large (>1 m²)

Expand to show TLE details & history
Last TLE update: 3 days ago

TLE from 3 days ago
0 STARLINK-31945
1 59870U 24098N   26171.02304611  .00000419  00000-0  24737-4 0  9997
2 59870  43.0020  56.0079 0001499 270.0267  90.0413 15.27590670117541
Epoch: 2026-06-20T00:33Z
TLE epoch observation values (Epoch: 2026-06-20T00:33:11.183Z)
Latitude
-0.00003°
Longitude
139.46765°
Altitude
482.794 km
Speed
7.626 km/s
True Right ascension
03h 44m 01s
True Declination
0° 00' 00"
Sunlit
Object was in daylight at epoch
Visualization orbit readout
Latitude
Unknown
Longitude
Unknown
Altitude
Unknown
Speed
Unknown
Apparent Right ascension
Unknown
Apparent Declination
Unknown
Sunlit
N/A
Visualization observer readout
Local Sidereal Time
00:38:48
Azimuth
Unknown
Elevation
Unknown
Doppler factor
Unknown
Orbital elements
Apogee altitude
485.991 km
Perigee altitude
483.933 km
Semi-major axis
6,863.099 km
Eccentricity
0.00015
Inclination
43.002°
RAAN
56.0079°
Arg. of periapsis
270.0267°
True anomaly
90.05848°
Mean anomaly
90.0413°
Eccentric anomaly
90.04989°
Mean motion
3.81736 °/min
Orbital period
94.31 mins
BSTAR
0.000024737
Loading maneuver chart data...
Computing Atmospheric mass density...
Loading historical data...
Loading historical data...
Loading historical data...
Loading historical data...
Loading historical data...
Loading historical data...
Loading historical data...

Documentation

Showing up to 5 results
|